Theta_e
321 318 320 320 319 319 318 319 321 322 319 320 320 321 323 327 329 329 330 331 330 328 325 323 322 322 321 320 320 320 319 318 318 317 317 319 316 316 316 315 315 318 316 319
318 321 321 318 318 318 318 319 318 318 318 320 323 323 320 323 326 328 329 330 330 329 327 324 323 322 322 321 321 321 319 318 318 318 317 317 317 316 316 315 315 314 312 311
319 322 322 321 321 321 319 320 319 318 316 316 317 315 320 321 324 327 329 329 329 325 324 324 323 324 323 322 323 323 320 319 318 316 316 315 315 314 315 315 314 313 312 312
321 322 321 321 322 320 322 320 320 319 317 316 314 314 313 319 321 325 328 328 327 325 324 324 325 325 323 320 320 321 320 317 316 317 317 316 315 315 314 313 313 312 312 311
324 321 322 321 322 321 320 320 318 318 317 315 315 313 316 320 321 320 320 323 324 323 321 320 320 320 317 317 316 317 318 317 318 318 317 317 317 316 315 314 313 313 312 312
323 322 322 322 321 319 317 316 312 313 311 314 316 316 320 320 321 319 320 321 320 320 319 318 316 315 315 316 315 316 316 315 315 315 314 313 313 314 315 316 316 316 315 314
322 322 322 323 323 319 314 312 313 313 317 316 314 321 319 319 318 319 320 319 319 319 318 315 315 314 314 315 315 313 312 311 311 311 311 310 310 310 309 309 308 309 311 312
322 323 323 323 321 321 316 313 313 317 317 315 316 323 321 318 319 319 318 319 318 315 314 314 314 314 313 311 311 311 311 310 310 310 311 310 310 309 308 307 307 308 309 309
321 324 322 320 319 318 317 316 314 315 316 316 316 321 319 319 317 316 318 317 315 313 313 312 312 312 312 311 311 310 311 311 311 310 309 308 307 307 307 307 307 308 307 308
322 322 323 322 320 318 315 313 315 314 322 320 315 318 320 320 317 315 314 313 313 313 313 313 312 312 312 311 311 311 311 311 310 309 308 308 308 308 307 307 307 307 307 308
321 319 320 322 320 319 316 318 312 313 314 316 317 316 313 317 315 312 313 313 313 313 313 313 312 312 312 311 311 311 310 309 308 308 307 308 308 306 305 305 305 304 304 305
322 319 322 322 321 319 315 315 312 314 315 315 315 317 312 312 313 313 313 313 313 313 313 313 312 311 311 311 311 310 309 308 308 307 308 308 307 307 306 305 304 304 303 303
320 316 316 313 317 319 320 320 312 312 311 316 315 315 313 314 314 314 313 313 313 313 313 312 311 311 311 310 309 308 307 307 306 307 307 307 307 306 306 305 305 305 304 304
320 316 316 313 315 320 321 320 318 315 313 316 315 316 314 313 313 313 313 313 313 312 312 311 311 310 310 308 307 307 306 306 306 307 307 307 307 307 307 307 307 305 305 306
313 315 318 318 319 320 320 320 319 316 315 316 316 316 314 312 313 313 313 313 313 312 311 311 310 309 308 307 307 306 306 305 306 307 308 308 308 308 308 308 307 307 306 305
314 318 321 321 321 322 322 321 320 319 317 316 315 316 313 314 315 314 314 312 311 311 311 310 310 309 308 307 306 306 305 306 306 307 308 308 309 309 309 308 308 306 307 306
317 316 317 319 320 320 314 318 319 318 316 314 314 312 314 314 314 314 312 310 311 311 310 310 309 308 308 306 305 306 306 305 306 307 308 309 310 310 309 309 308 308 307 307
316 316 316 319 318 320 314 317 319 317 315 314 314 314 315 316 316 314 311 311 311 311 311 310 309 308 306 306 307 306 305 305 306 307 309 309 309 309 308 308 308 307 307 307
316 314 315 317 318 317 319 320 316 316 316 315 315 316 317 317 315 314 312 311 311 311 310 309 308 306 306 307 307 306 306 306 306 306 308 308 308 309 308 308 307 307 307 307
315 312 315 316 319 320 317 319 316 315 316 317 317 316 316 314 312 309 312 311 311 310 310 309 307 306 308 307 307 306 306 305 306 307 308 308 308 309 308 308 307 307 307 307
317 317 316 314 317 317 316 318 317 318 318 318 318 317 316 312 315 313 311 311 311 310 309 308 306 308 307 307 307 306 306 305 305 307 307 307 309 309 308 309 308 308 308 308
319 317 317 315 319 321 319 317 317 318 318 319 318 318 317 315 312 311 311 311 310 310 309 308 306 308 307 307 307 307 306 305 305 306 305 307 309 309 309 310 309 309 309 310
322 317 318 316 317 318 319 319 320 319 318 319 318 317 315 314 312 311 310 310 310 309 308 307 307 308 307 307 306 306 306 306 305 306 306 308 309 310 310 310 310 309 309 310
317 318 318 317 317 319 321 320 319 319 319 318 318 316 314 314 312 310 310 310 310 308 308 306 307 308 307 307 306 306 306 305 305 305 306 309 310 310 310 310 310 310 309 309
316 316 315 314 316 318 321 321 320 319 318 318 316 315 314 313 311 309 309 309 309 308 307 306 306 307 307 306 306 306 305 305 305 305 306 308 310 311 311 310 310 310 309 309
317 314 315 316 318 318 319 319 320 320 319 317 316 314 313 312 310 309 309 309 308 308 307 306 306 307 306 306 306 306 304 304 304 305 306 307 309 311 311 311 310 309 309 309
Wind_Speed
5 6 4 4 3 5 6 5 4 2 5 2 4 7 16 22 16 24 26 29 26 20 14 9 5 3 1 2 3 2 3 3 3 3 5 6 8 11 14 17 25 20 19 20
6 3 3 8 7 8 8 4 3 5 3 3 1 5 6 14 11 25 31 27 24 22 16 10 4 3 4 3 4 5 6 6 7 8 9 11 11 11 16 20 22 22 27 27
6 1 6 7 5 7 3 4 3 4 6 3 2 6 2 4 9 13 21 22 21 16 13 11 7 9 8 8 9 9 8 8 8 10 11 12 14 18 19 19 23 28 26 29
4 1 6 5 4 3 1 3 2 4 4 2 4 4 5 5 4 10 20 18 18 15 12 8 10 10 9 7 8 11 12 9 10 11 14 16 17 18 19 20 21 25 27 23
4 5 2 7 3 0 4 1 3 2 2 3 6 3 6 2 4 3 2 11 10 8 5 3 5 7 4 10 9 7 9 11 14 15 18 21 23 23 22 22 23 24 22 24
2 1 3 4 2 3 2 4 6 4 3 2 2 3 5 1 2 3 6 10 9 8 8 6 3 4 4 3 5 8 11 11 13 17 18 18 19 20 23 26 30 29 28 28
7 4 5 1 2 2 8 7 4 5 5 4 6 4 7 4 3 8 13 12 10 8 3 3 3 7 8 5 6 8 10 11 12 13 15 20 25 29 33 34 34 33 32 31
3 4 3 2 2 2 3 5 5 2 1 5 4 3 5 4 1 5 9 11 7 4 3 6 8 6 4 6 9 10 12 16 20 24 28 32 36 40 41 38 36 35 33 30
3 2 3 2 2 3 2 2 4 5 2 2 3 3 5 2 3 6 8 6 4 4 4 4 5 9 12 14 14 16 19 24 27 32 36 37 36 35 32 29 28 28 27 27
3 1 2 3 3 3 2 5 2 3 0 3 4 4 5 6 7 5 6 5 3 3 3 7 10 13 13 13 15 19 25 30 35 38 37 35 36 36 35 34 35 33 31 28
3 4 5 2 2 4 3 1 6 4 4 5 2 5 4 6 5 7 4 1 1 1 3 9 12 10 11 15 19 25 29 35 37 35 34 36 32 29 26 25 23 22 24 29
2 5 2 7 6 3 4 4 5 5 4 1 3 6 5 5 9 9 3 3 1 3 8 11 11 11 14 19 25 31 34 36 33 33 33 34 30 29 27 27 23 21 22 21
5 2 3 8 6 6 4 3 5 4 3 5 5 6 1 5 6 3 1 4 3 6 7 8 12 12 18 25 30 31 34 32 32 32 30 28 29 26 25 24 24 25 21 19
4 3 6 6 5 2 4 4 1 5 3 3 6 3 5 3 3 1 3 6 5 4 7 11 11 16 22 28 31 32 31 30 32 29 28 29 27 26 26 25 25 23 20 19
4 3 4 6 7 4 5 8 5 6 6 5 7 7 6 7 5 5 1 3 3 7 9 9 15 22 28 30 30 30 30 32 33 28 27 27 26 27 28 28 26 23 20 21
2 1 2 4 4 3 6 10 10 7 2 3 4 3 4 4 1 5 4 5 7 7 7 14 21 26 29 29 31 31 32 34 31 25 26 25 28 31 30 28 26 23 23 18
4 5 3 4 4 7 5 3 1 1 1 5 5 6 5 2 7 9 6 4 7 10 13 18 24 28 31 31 28 32 33 32 26 23 24 26 29 30 31 30 27 26 21 19
6 5 2 3 4 1 6 4 5 3 1 3 5 5 8 5 2 4 2 8 12 9 15 21 27 30 30 28 31 31 28 28 25 22 25 27 31 31 33 33 27 22 21 18
4 5 3 3 2 6 7 3 3 4 6 5 7 7 5 2 3 6 5 8 8 13 19 24 27 30 27 29 27 26 28 27 21 24 27 29 32 33 33 32 30 26 21 18
5 5 5 3 2 4 6 2 4 5 5 12 13 10 7 4 3 5 6 8 10 16 20 24 29 26 28 27 26 26 27 27 23 26 27 29 31 31 29 30 26 23 17 16
2 2 5 3 4 7 8 9 4 5 8 18 14 10 10 5 7 5 7 7 12 16 20 26 27 25 25 25 25 24 24 26 26 25 27 28 30 28 30 26 24 23 18 13
7 7 4 3 2 7 11 7 8 7 7 15 14 12 12 9 6 5 8 8 11 17 22 26 23 24 21 22 24 24 25 27 25 25 26 27 28 29 27 24 24 25 25 19
2 7 6 9 7 6 24 9 17 7 9 17 16 14 11 9 6 7 8 9 13 18 22 25 21 24 19 21 22 24 25 25 26 26 24 27 28 29 25 23 22 24 25 24
3 6 3 3 4 10 12 26 9 12 14 16 15 14 11 8 6 6 7 10 13 18 22 24 21 23 19 19 21 23 24 25 25 25 24 25 28 29 29 25 22 20 22 22
5 6 4 3 7 6 12 16 22 15 15 16 15 12 9 6 6 6 8 10 14 17 21 22 20 22 20 19 21 22 24 25 26 25 23 25 27 28 30 27 23 18 16 18
8 6 5 6 11 10 11 10 16 22 23 20 16 13 8 6 6 8 8 10 14 17 21 22 18 21 20 21 21 22 23 26 24 24 24 24 26 28 28 28 29 18 16 15
Wind_Direction
16 61 58 332 105 102 117 74 20 308 330 76 295 167 175 169 164 152 159 160 157 154 146 127 101 48 100 64 35 145 163 164 163 209 224 231 286 280 287 293 291 292 291 287
26 56 90 113 95 86 51 59 341 290 322 17 113 254 105 163 180 170 164 163 165 162 162 167 173 235 223 327 216 215 205 214 218 233 252 264 273 279 298 292 288 296 313 313
118 115 132 95 55 63 45 101 311 257 334 358 18 319 98 54 142 167 168 168 169 168 173 185 215 215 226 246 245 232 246 255 271 291 274 273 269 273 277 279 294 303 309 304
63 17 105 92 91 121 73 211 271 289 40 261 34 278 11 346 84 152 180 181 179 183 193 207 222 230 243 266 258 262 264 276 273 267 269 272 272 273 275 278 283 304 302 291
272 169 60 60 345 118 219 270 322 332 184 91 340 86 283 32 65 62 116 179 186 188 200 242 244 193 278 321 321 291 261 273 274 267 272 271 270 276 279 276 278 281 283 284
340 31 100 152 107 64 28 11 33 54 71 60 294 150 313 287 181 150 168 169 157 160 127 95 46 309 332 311 258 226 239 250 258 264 272 278 283 286 283 282 279 273 269 271
358 350 319 68 35 10 54 47 346 356 8 220 316 52 238 300 185 167 156 160 154 138 101 37 338 339 325 289 244 279 289 304 307 308 309 310 311 309 306 301 294 287 283 280
138 329 350 355 138 187 62 133 148 268 306 282 328 156 253 215 195 151 155 153 129 71 11 333 329 330 357 348 327 317 313 313 313 312 310 308 307 304 301 299 293 287 282 278
129 282 324 38 62 99 155 71 175 106 22 27 281 302 339 188 125 113 139 116 78 6 10 23 3 349 339 331 322 316 313 311 311 310 312 313 311 308 304 296 292 293 293 283
184 55 328 308 44 41 100 159 53 18 251 298 290 279 232 229 204 151 136 115 62 83 339 332 332 327 319 315 318 315 313 318 319 316 314 314 313 305 297 290 288 284 278 272
111 111 289 344 170 184 345 13 54 112 131 180 273 269 245 237 180 161 146 128 23 18 339 323 319 304 306 313 312 318 324 324 319 317 318 317 317 318 313 308 306 304 295 282
34 132 218 236 284 296 177 176 126 118 244 210 164 270 341 97 130 139 124 346 190 332 316 316 317 306 307 315 321 324 322 322 318 320 321 323 323 318 319 315 310 307 303 294
182 24 19 349 354 2 44 5 109 117 81 203 140 266 76 111 113 122 0 247 256 303 299 316 325 309 316 318 323 326 324 320 323 323 327 326 327 327 325 326 316 310 309 302
110 116 150 193 221 200 293 294 323 141 121 227 226 251 198 191 192 184 193 189 296 270 302 315 309 315 322 331 332 328 326 328 329 330 326 326 330 331 327 321 319 313 304 301
100 164 171 240 238 250 255 275 260 198 208 180 258 204 184 185 182 173 205 286 270 293 295 298 318 332 336 335 333 327 328 331 332 329 329 334 336 335 328 325 319 318 305 304
28 201 165 284 304 284 266 267 260 259 202 204 140 241 156 140 76 216 270 251 274 276 294 326 336 337 337 335 330 328 329 329 329 327 334 337 337 333 330 328 325 314 312 301
126 128 92 273 336 332 345 252 271 320 118 139 175 233 169 211 244 230 227 263 320 329 330 336 340 340 337 333 334 332 330 331 329 334 337 340 337 332 336 330 327 323 314 303
135 112 115 249 15 302 241 269 281 166 56 95 103 170 195 211 239 195 264 334 330 325 337 342 341 338 336 336 334 331 340 343 339 340 342 341 340 339 340 337 331 324 317 309
146 126 113 151 202 287 302 132 139 158 263 182 172 203 220 248 250 243 282 313 326 337 341 341 340 336 338 336 335 339 342 340 343 342 346 343 343 342 341 341 331 326 314 304
69 68 122 130 149 246 242 301 135 110 301 192 195 204 202 188 343 257 273 314 323 335 340 341 341 340 339 341 340 345 345 345 344 342 339 341 343 346 349 345 346 342 326 305
104 52 177 147 204 284 245 230 174 90 242 186 201 212 196 205 236 270 300 309 325 335 342 342 340 344 346 351 347 346 350 348 344 340 341 346 346 352 352 347 354 355 347 331
173 157 196 103 159 275 191 125 166 213 178 189 203 217 215 232 212 274 305 304 324 338 340 342 340 345 346 350 348 348 353 347 346 344 347 347 350 355 357 354 359 8 13 8
230 186 185 175 207 232 189 208 212 210 203 202 212 209 219 204 234 288 290 311 332 339 342 344 342 345 346 346 350 346 350 348 348 350 350 351 355 358 0 353 354 1 8 15
235 172 194 100 253 245 233 219 234 231 220 215 216 210 207 224 269 283 299 323 334 342 345 345 342 345 346 347 349 347 349 352 350 349 352 356 359 0 3 1 355 356 4 11
207 150 165 267 283 274 243 236 235 228 219 210 202 207 214 249 283 285 309 326 338 344 346 346 343 346 347 348 348 351 355 352 351 350 353 356 0 3 5 7 9 4 3 11
190 186 162 224 262 228 250 253 243 225 218 208 199 197 217 259 280 303 312 332 341 343 346 345 343 346 348 349 348 354 2 355 353 353 354 356 360 2 6 5 8 22 18 28